Time,TemperatureF,DewpointF,PressureIn,WindDirection,WindDirectionDegrees,WindSpeedMPH,WindSpeedGustMPH,Humidity,HourlyPrecipIn,Conditions,Clouds,dailyrainin,SoftwareType,DateUTC
2013-02-23 00:01:00,40.9,35.7,28.88,North,360,1.9,2.0,82,0.04,,,0.00,WSDL version 420,2013-02-23 05:01:00,
2013-02-23 00:05:00,40.8,35.8,28.88,North,360,0.0,2.0,82,0.04,,,0.00,WSDL version 420,2013-02-23 05:05:00,
2013-02-23 00:07:00,40.8,35.8,28.88,North,360,0.0,2.0,82,0.04,,,0.00,WSDL version 420,2013-02-23 05:07:00,
2013-02-23 00:13:00,40.7,35.7,28.85,North,360,0.0,0.0,82,0.04,,,0.00,WSDL version 420,2013-02-23 05:13:00,
2013-02-23 00:19:00,40.7,35.7,28.85,South,180,0.0,0.0,82,0.09,,,0.05,WSDL version 420,2013-02-23 05:19:00,
2013-02-23 00:23:00,40.7,35.7,28.85,North,360,0.0,2.2,82,0.09,,,0.05,WSDL version 420,2013-02-23 05:23:00,
2013-02-23 00:25:00,40.7,35.7,28.85,North,360,1.6,2.2,82,0.09,,,0.05,WSDL version 420,2013-02-23 05:25:00,
2013-02-23 00:29:00,40.5,35.5,28.85,North,360,1.6,2.2,82,0.09,,,0.05,WSDL version 420,2013-02-23 05:29:00,
2013-02-23 00:31:00,40.5,35.5,28.85,North,360,0.0,2.2,82,0.09,,,0.05,WSDL version 420,2013-02-23 05:31:00,
2013-02-23 00:33:00,40.5,35.5,28.85,North,-999,-999.0,-999.0,82,0.09,,,0.05,WSDL version 420,2013-02-23 05:33:00,
2013-02-23 00:37:00,40.6,35.7,28.85,SSW,203,0.0,1.1,82,0.09,,,0.05,WSDL version 420,2013-02-23 05:37:00,
2013-02-23 00:39:00,40.6,35.7,28.85,SSW,203,0.0,0.0,82,0.09,,,0.05,WSDL version 420,2013-02-23 05:39:00,
2013-02-23 00:43:00,40.8,35.8,28.82,East,90,0.0,0.0,82,0.05,,,0.05,WSDL version 420,2013-02-23 05:43:00,
2013-02-23 00:45:00,40.8,35.8,28.82,East,90,0.0,0.0,82,0.05,,,0.05,WSDL version 420,2013-02-23 05:45:00,
2013-02-23 00:47:00,40.8,35.9,28.82,East,90,0.0,0.0,83,0.05,,,0.05,WSDL version 420,2013-02-23 05:47:00,
2013-02-23 00:51:00,40.8,36.2,28.82,SSW,203,0.0,0.0,83,0.05,,,0.05,WSDL version 420,2013-02-23 05:51:00,
2013-02-23 00:57:00,40.8,36.2,28.85,NW,315,0.0,0.0,83,0.05,,,0.05,WSDL version 420,2013-02-23 05:57:00,
2013-02-23 00:59:00,40.8,36.2,28.85,NW,315,0.0,0.0,83,0.05,,,0.05,WSDL version 420,2013-02-23 05:59:00,
2013-02-23 01:01:00,40.8,36.2,28.85,NW,315,0.0,0.0,83,0.05,,,0.05,WSDL version 420,2013-02-23 06:01:00,
2013-02-23 01:05:00,40.8,36.2,28.85,North,360,0.0,0.0,83,0.05,,,0.05,WSDL version 420,2013-02-23 06:05:00,
2013-02-23 01:07:00,40.8,36.2,28.85,North,360,0.0,0.0,83,0.05,,,0.05,WSDL version 420,2013-02-23 06:07:00,
2013-02-23 01:11:00,40.8,36.2,28.82,NW,315,0.0,0.0,83,0.05,,,0.05,WSDL version 420,2013-02-23 06:11:00,
2013-02-23 01:13:00,40.8,36.2,28.82,North,-999,-999.0,-999.0,83,0.05,,,0.05,WSDL version 420,2013-02-23 06:13:00,
2013-02-23 01:19:00,40.7,35.7,28.82,NNW,338,0.0,1.3,82,0.04,,,0.09,WSDL version 420,2013-02-23 06:19:00,
2013-02-23 01:21:00,40.6,35.7,28.82,NNW,338,0.0,1.3,82,0.04,,,0.09,WSDL version 420,2013-02-23 06:21:00,
2013-02-23 01:25:00,40.6,35.9,28.82,NNW,338,0.0,1.3,83,0.04,,,0.09,WSDL version 420,2013-02-23 06:25:00,
2013-02-23 01:27:00,40.6,36.0,28.82,NNW,338,0.0,0.0,83,0.04,,,0.09,WSDL version 420,2013-02-23 06:27:00,
2013-02-23 01:31:00,40.6,36.0,28.82,NNW,338,0.0,0.0,83,0.04,,,0.09,WSDL version 420,2013-02-23 06:31:00,
2013-02-23 01:35:00,40.6,36.0,28.82,NNW,338,0.0,0.0,83,0.04,,,0.09,WSDL version 420,2013-02-23 06:35:00,
2013-02-23 01:41:00,40.6,35.9,28.79,NNW,338,0.0,0.0,82,0.04,,,0.09,WSDL version 420,2013-02-23 06:41:00,
2013-02-23 01:43:00,40.6,35.7,28.79,NNW,338,0.0,0.0,82,0.04,,,0.09,WSDL version 420,2013-02-23 06:43:00,
2013-02-23 01:49:00,40.6,36.0,28.79,NNW,338,0.0,0.0,83,0.04,,,0.09,WSDL version 420,2013-02-23 06:49:00,
2013-02-23 01:51:00,40.6,36.0,28.79,NNW,338,0.0,0.0,83,0.04,,,0.09,WSDL version 420,2013-02-23 06:51:00,
2013-02-23 01:53:00,40.6,36.0,28.79,NNW,338,0.0,0.0,83,0.04,,,0.09,WSDL version 420,2013-02-23 06:53:00,
2013-02-23 01:57:00,40.6,36.0,28.79,SW,225,0.0,0.0,83,0.04,,,0.09,WSDL version 420,2013-02-23 06:57:00,
2013-02-23 01:59:00,40.7,36.0,28.79,SW,225,0.0,0.0,83,0.04,,,0.09,WSDL version 420,2013-02-23 06:59:00,
2013-02-23 02:03:00,40.8,36.2,28.79,SSW,203,0.0,0.0,83,0.04,,,0.09,WSDL version 420,2013-02-23 07:03:00,
2013-02-23 02:05:00,40.8,36.2,28.79,SSE,158,0.0,0.0,83,0.04,,,0.09,WSDL version 420,2013-02-23 07:05:00,
2013-02-23 02:07:00,40.8,36.2,28.79,SSE,158,0.0,0.0,83,0.04,,,0.09,WSDL version 420,2013-02-23 07:07:00,
2013-02-23 02:11:00,40.7,36.0,28.79,West,270,0.0,0.0,83,0.04,,,0.09,WSDL version 420,2013-02-23 07:11:00,
2013-02-23 02:13:00,40.6,35.9,28.79,West,270,0.0,0.0,82,0.04,,,0.09,WSDL version 420,2013-02-23 07:13:00,
2013-02-23 02:17:00,40.5,35.5,28.79,West,270,0.0,0.0,82,0.00,,,0.09,WSDL version 420,2013-02-23 07:17:00,
2013-02-23 02:30:00,40.6,36.0,28.79,South,180,0.4,1.6,83,0.00,,,0.09,WSDL version 420,2013-02-23 07:30:00,
2013-02-23 02:34:00,40.6,36.0,28.79,East,90,0.0,1.6,83,0.00,,,0.09,WSDL version 420,2013-02-23 07:34:00,
2013-02-23 02:36:00,40.6,36.0,28.79,East,90,0.0,1.3,83,0.00,,,0.09,WSDL version 420,2013-02-23 07:36:00,
2013-02-23 02:38:00,40.6,36.0,28.79,East,90,0.0,0.0,83,0.00,,,0.09,WSDL version 420,2013-02-23 07:38:00,
2013-02-23 02:44:00,40.6,36.0,28.79,East,90,0.0,0.0,83,0.00,,,0.09,WSDL version 420,2013-02-23 07:44:00,
2013-02-23 02:46:00,40.6,36.0,28.79,East,90,0.0,0.0,83,0.00,,,0.09,WSDL version 420,2013-02-23 07:46:00,
2013-02-23 02:52:00,40.6,36.0,28.79,NE,45,0.0,0.0,83,0.00,,,0.09,WSDL version 420,2013-02-23 07:52:00,
2013-02-23 02:54:00,40.6,36.0,28.79,NE,45,0.0,0.0,83,0.00,,,0.09,WSDL version 420,2013-02-23 07:54:00,
2013-02-23 02:56:00,40.6,36.0,28.79,NE,45,0.0,0.0,83,0.00,,,0.09,WSDL version 420,2013-02-23 07:56:00,
2013-02-23 03:00:00,40.6,36.0,28.79,NNE,23,0.0,0.0,83,0.00,,,0.09,WSDL version 420,2013-02-23 08:00:00,
2013-02-23 03:02:00,40.6,36.0,28.79,NNE,23,0.0,0.0,83,0.00,,,0.09,WSDL version 420,2013-02-23 08:02:00,
2013-02-23 03:06:00,40.6,36.0,28.79,NNE,23,0.0,0.0,83,0.04,,,0.13,WSDL version 420,2013-02-23 08:06:00,
2013-02-23 03:08:00,40.6,36.0,28.79,NNE,23,0.0,0.0,83,0.04,,,0.13,WSDL version 420,2013-02-23 08:08:00,
2013-02-23 03:10:00,40.6,36.0,28.79,NNE,23,0.0,0.0,83,0.04,,,0.13,WSDL version 420,2013-02-23 08:10:00,
2013-02-23 03:16:00,40.5,35.8,28.79,NNE,23,0.0,0.0,83,0.04,,,0.13,WSDL version 420,2013-02-23 08:16:00,
2013-02-23 03:18:00,40.5,35.8,28.79,NNE,23,0.0,0.0,83,0.04,,,0.13,WSDL version 420,2013-02-23 08:18:00,
2013-02-23 03:20:00,40.5,35.8,28.79,NNE,23,0.0,0.0,83,0.04,,,0.13,WSDL version 420,2013-02-23 08:20:00,
2013-02-23 03:24:00,40.5,35.8,28.79,NNE,23,1.6,2.0,83,0.04,,,0.13,WSDL version 420,2013-02-23 08:24:00,
2013-02-23 03:26:00,40.5,35.8,28.76,NNE,23,0.0,2.0,83,0.04,,,0.13,WSDL version 420,2013-02-23 08:26:00,
2013-02-23 03:28:00,40.5,35.8,28.76,NNE,23,0.0,2.0,83,0.04,,,0.13,WSDL version 420,2013-02-23 08:28:00,
2013-02-23 03:30:00,40.5,35.8,28.76,NNE,23,0.0,2.0,83,0.04,,,0.13,WSDL version 420,2013-02-23 08:30:00,
2013-02-23 03:32:00,40.5,35.8,28.76,NNE,23,0.0,1.3,83,0.04,,,0.13,WSDL version 420,2013-02-23 08:32:00,
2013-02-23 03:36:00,40.5,35.8,28.76,NNE,23,0.0,0.0,83,0.04,,,0.13,WSDL version 420,2013-02-23 08:36:00,
2013-02-23 03:38:00,40.5,35.8,28.76,NNE,23,0.0,0.0,83,0.04,,,0.13,WSDL version 420,2013-02-23 08:38:00,
2013-02-23 03:42:00,40.5,35.8,28.73,NNE,23,0.0,0.0,83,0.04,,,0.13,WSDL version 420,2013-02-23 08:42:00,
2013-02-23 03:44:00,40.5,35.8,28.73,NNE,23,0.0,0.0,83,0.04,,,0.13,WSDL version 420,2013-02-23 08:44:00,
2013-02-23 03:46:00,40.5,35.8,28.73,NNE,23,0.0,0.0,83,0.04,,,0.13,WSDL version 420,2013-02-23 08:46:00,
2013-02-23 03:50:00,40.5,35.8,28.73,NNE,23,0.0,0.0,83,0.04,,,0.13,WSDL version 420,2013-02-23 08:50:00,
2013-02-23 03:54:00,40.6,35.9,28.73,NNE,23,0.0,0.0,83,0.04,,,0.13,WSDL version 420,2013-02-23 08:54:00,
2013-02-23 03:56:00,40.6,36.0,28.73,NNE,23,0.0,0.0,83,0.04,,,0.13,WSDL version 420,2013-02-23 08:56:00,
2013-02-23 04:02:00,40.6,35.9,28.73,NNE,23,0.0,0.0,83,0.08,,,0.17,WSDL version 420,2013-02-23 09:02:00,
2013-02-23 04:06:00,40.6,35.9,28.73,NW,326,0.0,0.0,83,0.04,,,0.17,WSDL version 420,2013-02-23 09:06:00,
2013-02-23 04:08:00,40.6,36.0,28.73,SW,225,0.0,0.0,83,0.04,,,0.17,WSDL version 420,2013-02-23 09:08:00,
2013-02-23 04:10:00,40.6,36.0,28.73,SW,225,0.0,0.0,83,0.04,,,0.17,WSDL version 420,2013-02-23 09:10:00,
2013-02-23 04:12:00,40.6,36.0,28.73,SW,225,0.0,0.0,83,0.04,,,0.17,WSDL version 420,2013-02-23 09:12:00,
2013-02-23 04:14:00,40.6,36.2,28.73,North,0,0.0,0.0,84,0.04,,,0.17,WSDL version 420,2013-02-23 09:14:00,
2013-02-23 04:16:00,40.6,36.3,28.73,SW,218,0.0,0.0,84,0.04,,,0.17,WSDL version 420,2013-02-23 09:16:00,
2013-02-23 04:20:00,40.8,36.4,28.73,South,180,0.0,0.0,84,0.04,,,0.17,WSDL version 420,2013-02-23 09:20:00,
2013-02-23 04:22:00,40.8,36.5,28.73,North,-999,-999.0,-999.0,84,0.04,,,0.17,WSDL version 420,2013-02-23 09:22:00,
2013-02-23 04:26:00,40.8,36.5,28.76,SSW,203,0.0,2.2,84,0.04,,,0.17,WSDL version 420,2013-02-23 09:26:00,
2013-02-23 04:28:00,40.8,36.5,28.76,SSW,203,0.0,2.2,84,0.04,,,0.17,WSDL version 420,2013-02-23 09:28:00,
2013-02-23 04:32:00,40.8,36.5,28.76,SSW,203,0.0,2.2,84,0.04,,,0.17,WSDL version 420,2013-02-23 09:32:00,
2013-02-23 04:34:00,40.8,36.5,28.76,SSW,203,0.0,0.0,84,0.04,,,0.17,WSDL version 420,2013-02-23 09:34:00,
2013-02-23 04:38:00,40.8,36.5,28.76,SSW,203,0.0,0.0,84,0.04,,,0.17,WSDL version 420,2013-02-23 09:38:00,
2013-02-23 04:40:00,40.8,36.5,28.73,West,259,0.0,0.0,84,0.04,,,0.17,WSDL version 420,2013-02-23 09:40:00,
2013-02-23 04:44:00,40.7,36.4,28.73,NNW,338,0.0,0.0,84,0.04,,,0.17,WSDL version 420,2013-02-23 09:44:00,
2013-02-23 04:46:00,40.6,36.3,28.73,North,353,0.0,0.0,84,0.04,,,0.17,WSDL version 420,2013-02-23 09:46:00,
2013-02-23 04:48:00,40.6,36.3,28.73,North,360,0.0,0.0,84,0.04,,,0.17,WSDL version 420,2013-02-23 09:48:00,
2013-02-23 04:50:00,40.6,36.3,28.73,North,360,0.0,0.0,84,0.08,,,0.21,WSDL version 420,2013-02-23 09:50:00,
2013-02-23 04:54:00,40.6,36.3,28.73,North,360,0.0,0.0,84,0.08,,,0.21,WSDL version 420,2013-02-23 09:54:00,
2013-02-23 04:56:00,40.6,36.3,28.70,North,360,0.0,0.0,84,0.08,,,0.21,WSDL version 420,2013-02-23 09:56:00,
2013-02-23 04:58:00,40.6,36.3,28.70,North,360,0.0,0.0,83,0.08,,,0.21,WSDL version 420,2013-02-23 09:58:00,
2013-02-23 05:00:00,40.6,36.1,28.70,NNE,23,2.2,2.2,83,0.08,,,0.21,WSDL version 420,2013-02-23 10:00:00,
2013-02-23 05:06:00,40.5,35.9,28.70,North,360,1.3,2.2,83,0.04,,,0.21,WSDL version 420,2013-02-23 10:06:00,
2013-02-23 05:08:00,40.5,35.8,28.70,North,360,0.9,2.2,83,0.04,,,0.21,WSDL version 420,2013-02-23 10:08:00,
2013-02-23 05:10:00,40.5,35.8,28.70,North,360,0.4,1.6,83,0.04,,,0.21,WSDL version 420,2013-02-23 10:10:00,
2013-02-23 05:16:00,40.5,35.8,28.70,NE,45,1.1,2.7,83,0.04,,,0.21,WSDL version 420,2013-02-23 10:16:00,
2013-02-23 05:18:00,40.5,35.8,28.70,North,11,1.0,2.7,83,0.04,,,0.21,WSDL version 420,2013-02-23 10:18:00,
2013-02-23 05:20:00,40.5,35.8,28.70,North,360,1.1,2.7,83,0.04,,,0.21,WSDL version 420,2013-02-23 10:20:00,
2013-02-23 05:24:00,40.5,35.9,28.70,North,360,0.0,1.6,84,0.04,,,0.21,WSDL version 420,2013-02-23 10:24:00,
2013-02-23 05:26:00,40.5,35.9,28.70,North,360,0.0,1.6,83,0.04,,,0.21,WSDL version 420,2013-02-23 10:26:00,
2013-02-23 05:30:00,40.5,35.9,28.70,North,0,0.0,0.0,84,0.04,,,0.21,WSDL version 420,2013-02-23 10:30:00,
2013-02-23 05:32:00,40.5,36.0,28.70,North,360,0.0,0.0,84,0.04,,,0.21,WSDL version 420,2013-02-23 10:32:00,
2013-02-23 05:36:00,40.5,36.1,28.70,North,360,0.0,0.0,84,0.04,,,0.21,WSDL version 420,2013-02-23 10:36:00,
2013-02-23 05:38:00,40.5,36.1,28.70,North,360,0.0,0.0,84,0.04,,,0.21,WSDL version 420,2013-02-23 10:38:00,
2013-02-23 05:42:00,40.6,36.3,28.73,North,360,0.0,0.0,84,0.04,,,0.21,WSDL version 420,2013-02-23 10:42:00,
2013-02-23 05:44:00,40.6,36.3,28.73,North,360,0.0,0.0,84,0.04,,,0.21,WSDL version 420,2013-02-23 10:44:00,
2013-02-23 05:46:00,40.6,36.3,28.73,North,360,0.0,0.0,84,0.04,,,0.21,WSDL version 420,2013-02-23 10:46:00,
2013-02-23 05:50:00,40.6,36.3,28.73,North,360,0.0,0.0,84,0.00,,,0.21,WSDL version 420,2013-02-23 10:50:00,
2013-02-23 05:56:00,40.6,36.3,28.70,South,180,0.9,2.7,84,0.00,,,0.21,WSDL version 420,2013-02-23 10:56:00,
2013-02-23 05:58:00,40.6,36.3,28.70,WSW,252,0.9,2.7,84,0.00,,,0.21,WSDL version 420,2013-02-23 10:58:00,
2013-02-23 06:00:00,40.6,36.3,28.70,NW,315,0.0,2.7,84,0.00,,,0.21,WSDL version 420,2013-02-23 11:00:00,
2013-02-23 06:04:00,40.6,36.3,28.70,NW,315,0.0,2.7,84,0.00,,,0.21,WSDL version 420,2013-02-23 11:04:00,
2013-02-23 06:06:00,40.6,36.3,28.70,NW,315,0.0,2.5,84,0.00,,,0.21,WSDL version 420,2013-02-23 11:06:00,
2013-02-23 06:08:00,40.6,36.3,28.70,NW,315,0.0,0.0,84,0.00,,,0.21,WSDL version 420,2013-02-23 11:08:00,
2013-02-23 06:12:00,40.6,36.3,28.70,North,0,0.0,0.0,84,0.00,,,0.21,WSDL version 420,2013-02-23 11:12:00,
2013-02-23 06:18:00,40.6,36.3,28.70,North,360,0.0,2.2,84,0.00,,,0.21,WSDL version 420,2013-02-23 11:18:00,
2013-02-23 06:20:00,40.6,36.3,28.70,North,360,0.0,2.2,84,0.00,,,0.21,WSDL version 420,2013-02-23 11:20:00,
2013-02-23 06:28:00,40.5,36.1,28.70,North,360,0.0,0.0,84,0.00,,,0.21,WSDL version 420,2013-02-23 11:28:00,
2013-02-23 06:30:00,40.5,36.1,28.70,North,360,0.0,0.0,84,0.00,,,0.21,WSDL version 420,2013-02-23 11:30:00,
2013-02-23 06:35:00,40.5,36.1,28.70,North,360,0.0,0.0,84,0.00,,,0.21,WSDL version 420,2013-02-23 11:35:00,
2013-02-23 06:41:00,40.5,36.1,28.70,North,360,0.0,0.0,84,0.00,,,0.21,WSDL version 420,2013-02-23 11:41:00,
2013-02-23 06:45:00,40.5,36.2,28.70,SSW,203,0.0,0.0,84,0.00,,,0.21,WSDL version 420,2013-02-23 11:45:00,
2013-02-23 06:47:00,40.6,36.3,28.70,SSW,203,0.0,0.0,84,0.00,,,0.21,WSDL version 420,2013-02-23 11:47:00,
2013-02-23 06:51:00,40.6,36.3,28.70,SSW,203,0.0,0.0,84,0.00,,,0.21,WSDL version 420,2013-02-23 11:51:00,
2013-02-23 06:53:00,40.6,36.3,28.70,SSW,203,0.0,0.0,84,0.00,,,0.21,WSDL version 420,2013-02-23 11:53:00,
2013-02-23 06:55:00,40.6,36.3,28.73,SW,218,0.0,0.0,84,0.00,,,0.21,WSDL version 420,2013-02-23 11:55:00,
2013-02-23 06:59:00,40.6,36.3,28.73,SW,225,0.0,0.0,84,0.00,,,0.21,WSDL version 420,2013-02-23 11:59:00,
2013-02-23 07:03:00,40.6,36.3,28.73,SW,225,0.0,0.0,84,0.00,,,0.21,WSDL version 420,2013-02-23 12:03:00,
2013-02-23 07:05:00,40.7,36.4,28.73,SW,225,0.0,0.0,84,0.00,,,0.21,WSDL version 420,2013-02-23 12:05:00,
2013-02-23 07:07:00,40.8,36.5,28.73,SW,225,0.0,0.0,84,0.00,,,0.21,WSDL version 420,2013-02-23 12:07:00,
2013-02-23 07:13:00,40.7,36.4,28.70,SW,225,0.0,0.0,84,0.00,,,0.21,WSDL version 420,2013-02-23 12:13:00,
2013-02-23 07:19:00,40.8,36.5,28.70,SW,225,0.0,0.0,84,0.00,,,0.21,WSDL version 420,2013-02-23 12:19:00,
2013-02-23 07:21:00,40.9,36.6,28.70,SW,225,0.0,0.0,84,0.00,,,0.21,WSDL version 420,2013-02-23 12:21:00,
2013-02-23 07:23:00,40.9,36.6,28.70,SW,225,0.0,0.0,84,0.00,,,0.21,WSDL version 420,2013-02-23 12:23:00,
2013-02-23 07:27:00,41.0,36.7,28.70,SW,225,0.0,0.0,84,0.00,,,0.21,WSDL version 420,2013-02-23 12:27:00,
2013-02-23 07:33:00,41.0,36.7,28.70,South,180,0.0,0.0,84,0.00,,,0.21,WSDL version 420,2013-02-23 12:33:00,
2013-02-23 07:35:00,41.1,36.8,28.70,South,180,0.0,0.0,84,0.00,,,0.21,WSDL version 420,2013-02-23 12:35:00,
2013-02-23 07:37:00,41.2,36.9,28.70,South,180,0.0,0.0,84,0.00,,,0.21,WSDL version 420,2013-02-23 12:37:00,
2013-02-23 07:39:00,41.2,36.9,28.70,South,180,0.0,0.0,84,0.00,,,0.21,WSDL version 420,2013-02-23 12:39:00,
2013-02-23 07:43:00,41.2,36.9,28.73,South,180,0.0,0.0,84,0.00,,,0.21,WSDL version 420,2013-02-23 12:43:00,
2013-02-23 07:45:00,41.1,36.8,28.73,West,270,0.0,0.0,84,0.00,,,0.21,WSDL version 420,2013-02-23 12:45:00,
2013-02-23 07:51:00,41.0,36.7,28.73,NNE,23,0.0,0.0,84,0.00,,,0.21,WSDL version 420,2013-02-23 12:51:00,
2013-02-23 07:53:00,41.0,36.7,28.73,NNE,23,0.0,0.0,84,0.00,,,0.21,WSDL version 420,2013-02-23 12:53:00,
2013-02-23 07:57:00,41.0,36.7,28.73,NNE,23,0.0,0.0,84,0.00,,,0.21,WSDL version 420,2013-02-23 12:57:00,
2013-02-23 07:59:00,41.0,36.7,28.73,NNE,23,0.0,0.0,84,0.00,,,0.21,WSDL version 420,2013-02-23 12:59:00,
2013-02-23 08:01:00,41.0,36.7,28.73,North,0,0.0,0.0,84,0.00,,,0.21,WSDL version 420,2013-02-23 13:01:00,
2013-02-23 08:03:00,41.0,36.7,28.73,NNE,23,0.0,0.0,84,0.00,,,0.21,WSDL version 420,2013-02-23 13:03:00,
2013-02-23 08:09:00,41.1,36.8,28.73,NNE,23,0.0,0.0,84,0.00,,,0.21,WSDL version 420,2013-02-23 13:09:00,
2013-02-23 08:11:00,41.2,36.9,28.70,NNE,23,0.0,0.0,84,0.00,,,0.21,WSDL version 420,2013-02-23 13:11:00,
2013-02-23 08:13:00,41.2,36.9,28.70,NNE,23,0.0,0.0,84,0.00,,,0.21,WSDL version 420,2013-02-23 13:13:00,
2013-02-23 08:15:00,41.2,36.9,28.70,NNE,23,0.0,0.0,84,0.00,,,0.21,WSDL version 420,2013-02-23 13:15:00,
2013-02-23 08:17:00,41.2,36.9,28.70,NNE,23,0.0,0.0,84,0.00,,,0.21,WSDL version 420,2013-02-23 13:17:00,
2013-02-23 08:21:00,41.4,37.0,28.70,NNE,23,0.0,0.0,84,0.00,,,0.21,WSDL version 420,2013-02-23 13:21:00,
2013-02-23 08:23:00,41.4,37.1,28.70,NNE,23,0.0,0.0,84,0.00,,,0.21,WSDL version 420,2013-02-23 13:23:00,
2013-02-23 08:27:00,41.5,37.2,28.70,NNE,23,0.0,0.0,84,0.00,,,0.21,WSDL version 420,2013-02-23 13:27:00,
2013-02-23 08:29:00,41.5,37.2,28.70,NNE,23,0.0,0.0,84,0.00,,,0.21,WSDL version 420,2013-02-23 13:29:00,
2013-02-23 08:31:00,41.5,37.2,28.70,NNE,23,0.0,0.0,84,0.00,,,0.21,WSDL version 420,2013-02-23 13:31:00,
2013-02-23 08:35:00,41.5,37.2,28.70,NNE,23,0.0,0.0,84,0.00,,,0.21,WSDL version 420,2013-02-23 13:35:00,
2013-02-23 08:39:00,41.5,37.2,28.70,NNE,23,0.0,0.0,84,0.00,,,0.21,WSDL version 420,2013-02-23 13:39:00,
2013-02-23 08:43:00,41.5,37.2,28.73,NNE,23,0.0,0.0,84,0.00,,,0.21,WSDL version 420,2013-02-23 13:43:00,
2013-02-23 08:47:00,41.5,37.2,28.73,NNE,23,0.0,0.0,84,0.00,,,0.21,WSDL version 420,2013-02-23 13:47:00,
2013-02-23 08:51:00,41.6,37.3,28.73,NNE,23,0.0,0.0,84,0.00,,,0.21,WSDL version 420,2013-02-23 13:51:00,
2013-02-23 08:53:00,41.7,37.4,28.73,NNE,23,0.0,0.0,84,0.05,,,0.26,WSDL version 420,2013-02-23 13:53:00,
2013-02-23 08:59:00,41.8,37.5,28.73,North,-999,-999.0,-999.0,84,0.05,,,0.26,WSDL version 420,2013-02-23 13:59:00,
2013-02-23 09:01:00,41.9,37.5,28.73,NNE,23,0.0,0.0,84,0.05,,,0.26,WSDL version 420,2013-02-23 14:01:00,
2013-02-23 09:05:00,41.9,37.6,28.73,SSW,203,0.0,0.0,84,0.05,,,0.26,WSDL version 420,2013-02-23 14:05:00,
2013-02-23 09:07:00,42.0,37.7,28.73,SSW,203,0.0,0.0,84,0.05,,,0.26,WSDL version 420,2013-02-23 14:07:00,
2013-02-23 09:11:00,42.1,37.7,28.73,SSW,203,0.0,0.0,84,0.05,,,0.26,WSDL version 420,2013-02-23 14:11:00,
2013-02-23 09:13:00,42.1,37.7,28.73,South,191,0.0,0.9,84,0.05,,,0.26,WSDL version 420,2013-02-23 14:13:00,
2013-02-23 09:17:00,42.1,37.7,28.73,SSW,203,0.0,0.9,84,0.05,,,0.26,WSDL version 420,2013-02-23 14:17:00,
2013-02-23 09:23:00,42.2,37.9,28.73,SSW,203,0.0,0.0,84,0.05,,,0.26,WSDL version 420,2013-02-23 14:23:00,
2013-02-23 09:27:00,42.3,37.9,28.73,SSW,203,0.0,0.0,84,0.08,,,0.29,WSDL version 420,2013-02-23 14:27:00,
2013-02-23 09:29:00,42.3,37.9,28.73,SSW,203,0.0,0.0,84,0.08,,,0.29,WSDL version 420,2013-02-23 14:29:00,
2013-02-23 09:33:00,42.3,37.9,28.73,SSW,203,0.0,0.0,84,0.08,,,0.29,WSDL version 420,2013-02-23 14:33:00,
2013-02-23 09:35:00,42.4,38.0,28.73,SSW,203,0.0,0.0,84,0.08,,,0.29,WSDL version 420,2013-02-23 14:35:00,
2013-02-23 09:39:00,42.4,38.1,28.73,WSW,248,0.0,0.0,84,0.08,,,0.29,WSDL version 420,2013-02-23 14:39:00,
2013-02-23 09:41:00,42.4,38.1,28.73,WSW,248,0.0,0.0,84,0.08,,,0.29,WSDL version 420,2013-02-23 14:41:00,
2013-02-23 09:43:00,42.4,38.1,28.73,WSW,248,0.0,0.0,84,0.08,,,0.29,WSDL version 420,2013-02-23 14:43:00,
2013-02-23 09:47:00,42.4,38.1,28.73,WSW,248,0.0,0.0,84,0.08,,,0.29,WSDL version 420,2013-02-23 14:47:00,
2013-02-23 09:53:00,42.3,38.0,28.73,NNE,15,1.9,2.5,84,0.03,,,0.29,WSDL version 420,2013-02-23 14:53:00,
2013-02-23 09:55:00,42.3,37.9,28.70,NNE,23,1.6,2.5,84,0.03,,,0.29,WSDL version 420,2013-02-23 14:55:00,
2013-02-23 09:59:00,42.4,38.1,28.70,NNE,23,0.0,2.5,84,0.03,,,0.29,WSDL version 420,2013-02-23 14:59:00,
2013-02-23 10:01:00,42.4,38.1,28.70,NNE,23,0.0,2.5,84,0.03,,,0.29,WSDL version 420,2013-02-23 15:01:00,
2013-02-23 10:05:00,42.4,38.1,28.70,NNE,23,0.0,0.0,84,0.03,,,0.29,WSDL version 420,2013-02-23 15:05:00,
2013-02-23 10:07:00,42.4,38.1,28.70,NNE,23,0.0,0.0,84,0.03,,,0.29,WSDL version 420,2013-02-23 15:07:00,
2013-02-23 10:13:00,42.6,38.3,28.70,NNE,23,0.0,0.0,84,0.03,,,0.29,WSDL version 420,2013-02-23 15:13:00,
2013-02-23 10:19:00,42.7,38.3,28.70,NNE,23,0.0,0.0,84,0.03,,,0.29,WSDL version 420,2013-02-23 15:19:00,
2013-02-23 10:25:00,42.8,38.4,28.73,East,99,0.0,0.0,84,0.00,,,0.29,WSDL version 420,2013-02-23 15:25:00,
2013-02-23 10:29:00,42.9,38.5,28.73,South,180,0.0,0.0,84,0.00,,,0.29,WSDL version 420,2013-02-23 15:29:00,
2013-02-23 10:31:00,43.0,38.6,28.73,South,180,0.0,0.0,84,0.00,,,0.29,WSDL version 420,2013-02-23 15:31:00,
2013-02-23 10:37:00,43.2,38.8,28.73,South,180,0.0,0.0,84,0.00,,,0.29,WSDL version 420,2013-02-23 15:37:00,
2013-02-23 10:39:00,43.3,38.9,28.73,South,180,0.0,0.0,84,0.00,,,0.29,WSDL version 420,2013-02-23 15:39:00,
2013-02-23 10:45:00,43.5,39.1,28.70,SSW,203,0.0,0.0,84,0.00,,,0.29,WSDL version 420,2013-02-23 15:45:00,
2013-02-23 10:49:00,43.4,39.1,28.70,SSW,203,0.0,0.0,84,0.00,,,0.29,WSDL version 420,2013-02-23 15:49:00,
2013-02-23 10:55:00,43.5,39.1,28.73,SSW,203,0.0,0.0,84,0.00,,,0.29,WSDL version 420,2013-02-23 15:55:00,
2013-02-23 10:57:00,43.5,39.1,28.73,SSW,203,0.7,1.3,84,0.00,,,0.29,WSDL version 420,2013-02-23 15:57:00,
2013-02-23 11:03:00,43.7,39.3,28.73,SSW,203,0.0,1.3,84,0.00,,,0.29,WSDL version 420,2013-02-23 16:03:00,
2013-02-23 11:05:00,43.7,39.3,28.73,SSW,203,0.0,1.3,84,0.00,,,0.29,WSDL version 420,2013-02-23 16:05:00,
2013-02-23 11:11:00,43.7,39.4,28.70,SSW,203,0.0,0.0,84,0.00,,,0.29,WSDL version 420,2013-02-23 16:11:00,
2013-02-23 11:13:00,43.8,39.4,28.70,SSW,203,0.0,0.0,84,0.00,,,0.29,WSDL version 420,2013-02-23 16:13:00,
2013-02-23 11:17:00,43.9,39.5,28.70,ENE,68,0.0,0.0,84,0.00,,,0.29,WSDL version 420,2013-02-23 16:17:00,
2013-02-23 11:19:00,43.9,39.6,28.70,ENE,62,0.0,0.0,84,0.00,,,0.29,WSDL version 420,2013-02-23 16:19:00,
2013-02-23 11:25:00,44.2,39.8,28.73,NE,45,0.0,0.0,84,0.00,,,0.29,WSDL version 420,2013-02-23 16:25:00,
2013-02-23 11:27:00,44.2,39.9,28.73,ENE,64,0.0,0.0,84,0.00,,,0.29,WSDL version 420,2013-02-23 16:27:00,
2013-02-23 11:31:00,44.5,40.1,28.73,North,360,0.0,0.0,84,0.00,,,0.29,WSDL version 420,2013-02-23 16:31:00,
2013-02-23 11:33:00,44.6,40.2,28.73,North,360,0.0,0.0,84,0.00,,,0.29,WSDL version 420,2013-02-23 16:33:00,
2013-02-23 11:37:00,44.6,40.2,28.73,North,360,0.0,0.0,84,0.00,,,0.29,WSDL version 420,2013-02-23 16:37:00,
2013-02-23 11:43:00,44.7,40.3,28.70,North,360,1.2,1.3,84,0.00,,,0.29,WSDL version 420,2013-02-23 16:43:00,
2013-02-23 11:49:00,44.7,40.0,28.70,North,360,0.0,1.3,83,0.00,,,0.29,WSDL version 420,2013-02-23 16:49:00,
2013-02-23 11:51:00,44.8,40.0,28.70,North,360,0.0,1.3,83,0.00,,,0.29,WSDL version 420,2013-02-23 16:51:00,
2013-02-23 11:55:00,44.8,40.0,28.70,NNW,338,0.0,0.0,83,0.00,,,0.29,WSDL version 420,2013-02-23 16:55:00,
2013-02-23 12:01:00,44.6,39.9,28.70,North,360,0.0,0.0,83,0.00,,,0.29,WSDL version 420,2013-02-23 17:01:00,
2013-02-23 12:07:00,44.9,40.1,28.70,North,360,0.0,0.0,83,0.00,,,0.29,WSDL version 420,2013-02-23 17:07:00,
2013-02-23 12:09:00,45.0,40.3,28.70,NW,315,0.0,0.0,83,0.00,,,0.29,WSDL version 420,2013-02-23 17:09:00,
2013-02-23 12:15:00,45.3,40.8,28.70,NW,315,0.0,0.0,83,0.00,,,0.29,WSDL version 420,2013-02-23 17:15:00,
2013-02-23 12:19:00,45.4,40.6,28.70,East,90,0.0,0.0,83,0.00,,,0.29,WSDL version 420,2013-02-23 17:19:00,
2013-02-23 12:21:00,45.4,40.7,28.70,East,90,0.0,0.0,83,0.00,,,0.29,WSDL version 420,2013-02-23 17:21:00,
2013-02-23 12:23:00,45.5,40.7,28.70,North,360,0.0,0.0,83,0.00,,,0.29,WSDL version 420,2013-02-23 17:23:00,
2013-02-23 12:29:00,45.8,41.1,28.70,North,360,0.0,0.0,84,0.00,,,0.29,WSDL version 420,2013-02-23 17:29:00,
2013-02-23 12:35:00,45.9,41.3,28.70,North,360,0.0,0.0,83,0.00,,,0.29,WSDL version 420,2013-02-23 17:35:00,
2013-02-23 12:41:00,45.9,41.1,28.70,North,360,0.0,0.0,83,0.00,,,0.29,WSDL version 420,2013-02-23 17:41:00,
2013-02-23 12:45:00,46.0,41.3,28.70,North,360,0.0,0.0,83,0.00,,,0.29,WSDL version 420,2013-02-23 17:45:00,
2013-02-23 12:49:00,46.1,41.3,28.70,North,360,0.0,0.0,83,0.00,,,0.29,WSDL version 420,2013-02-23 17:49:00,
2013-02-23 12:51:00,46.1,41.3,28.70,NW,326,0.4,1.3,83,0.00,,,0.29,WSDL version 420,2013-02-23 17:51:00,
2013-02-23 12:57:00,46.0,41.3,28.67,North,360,0.0,1.3,83,0.00,,,0.29,WSDL version 420,2013-02-23 17:57:00,
2013-02-23 12:59:00,46.0,41.3,28.67,ENE,64,0.0,1.3,83,0.00,,,0.29,WSDL version 420,2013-02-23 17:59:00,
2013-02-23 13:03:00,46.1,41.3,28.67,NNE,23,0.0,0.0,83,0.00,,,0.29,WSDL version 420,2013-02-23 18:03:00,
2013-02-23 13:05:00,46.1,41.4,28.67,ENE,68,0.0,0.0,83,0.00,,,0.29,WSDL version 420,2013-02-23 18:05:00,
2013-02-23 13:09:00,46.2,41.5,28.67,NNE,17,0.0,0.0,83,0.00,,,0.29,WSDL version 420,2013-02-23 18:09:00,
2013-02-23 13:11:00,46.2,41.5,28.67,NW,315,0.0,0.0,83,0.00,,,0.29,WSDL version 420,2013-02-23 18:11:00,
2013-02-23 13:17:00,46.2,41.5,28.67,WNW,293,0.0,2.0,83,0.00,,,0.29,WSDL version 420,2013-02-23 18:17:00,
2013-02-23 13:19:00,46.3,41.5,28.67,WNW,293,0.0,2.0,83,0.00,,,0.29,WSDL version 420,2013-02-23 18:19:00,
2013-02-23 13:23:00,46.4,41.7,28.67,WNW,293,0.0,0.0,83,0.00,,,0.29,WSDL version 420,2013-02-23 18:23:00,
2013-02-23 13:29:00,46.7,41.9,28.67,SSW,203,0.0,0.0,83,0.00,,,0.29,WSDL version 420,2013-02-23 18:29:00,
2013-02-23 13:33:00,46.8,42.0,28.67,South,180,0.0,0.0,83,0.00,,,0.29,WSDL version 420,2013-02-23 18:33:00,
2013-02-23 13:37:00,46.9,42.1,28.67,SE,143,0.0,0.0,83,0.00,,,0.29,WSDL version 420,2013-02-23 18:37:00,
2013-02-23 13:39:00,46.9,42.1,28.67,SSW,203,0.0,0.0,82,0.00,,,0.29,WSDL version 420,2013-02-23 18:39:00,
2013-02-23 13:43:00,46.9,41.8,28.67,West,270,0.0,0.0,82,0.00,,,0.29,WSDL version 420,2013-02-23 18:43:00,
2013-02-23 13:47:00,47.0,41.9,28.67,East,90,0.0,0.0,82,0.00,,,0.29,WSDL version 420,2013-02-23 18:47:00,
2013-02-23 13:49:00,47.1,42.0,28.67,ESE,107,0.0,0.0,82,0.00,,,0.29,WSDL version 420,2013-02-23 18:49:00,
2013-02-23 13:55:00,47.3,42.1,28.67,North,6,0.0,0.0,82,0.00,,,0.29,WSDL version 420,2013-02-23 18:55:00,
2013-02-23 14:01:00,47.2,42.0,28.67,NNE,23,0.0,2.2,82,0.00,,,0.29,WSDL version 420,2013-02-23 19:01:00,
2013-02-23 14:07:00,47.3,42.1,28.67,SSW,203,0.0,2.0,82,0.00,,,0.29,WSDL version 420,2013-02-23 19:07:00,
2013-02-23 14:09:00,47.3,42.2,28.67,SSW,203,0.0,0.0,82,0.00,,,0.29,WSDL version 420,2013-02-23 19:09:00,
2013-02-23 14:13:00,47.4,42.3,28.67,South,180,0.0,0.0,82,0.00,,,0.29,WSDL version 420,2013-02-23 19:13:00,
2013-02-23 14:15:00,47.5,42.3,28.67,South,180,0.0,0.0,82,0.00,,,0.29,WSDL version 420,2013-02-23 19:15:00,
2013-02-23 14:21:00,47.7,42.5,28.67,SW,225,0.0,1.6,82,0.00,,,0.29,WSDL version 420,2013-02-23 19:21:00,
2013-02-23 14:25:00,47.7,42.5,28.67,SW,225,0.0,1.6,82,0.00,,,0.29,WSDL version 420,2013-02-23 19:25:00,
2013-02-23 14:27:00,47.7,42.5,28.67,SW,225,0.0,0.0,82,0.00,,,0.29,WSDL version 420,2013-02-23 19:27:00,
2013-02-23 14:33:00,47.7,42.5,28.67,NW,309,0.0,0.0,82,0.00,,,0.29,WSDL version 420,2013-02-23 19:33:00,
2013-02-23 14:39:00,47.5,42.1,28.67,NW,315,0.0,0.0,81,0.00,,,0.29,WSDL version 420,2013-02-23 19:39:00,
2013-02-23 14:41:00,47.5,42.0,28.67,NW,315,0.0,0.0,81,0.00,,,0.29,WSDL version 420,2013-02-23 19:41:00,
2013-02-23 14:45:00,47.5,42.0,28.67,NW,315,0.0,0.0,81,0.00,,,0.29,WSDL version 420,2013-02-23 19:45:00,
2013-02-23 14:47:00,47.5,42.0,28.67,NW,315,0.0,0.0,81,0.00,,,0.29,WSDL version 420,2013-02-23 19:47:00,
2013-02-23 14:51:00,47.5,42.0,28.67,NW,315,0.0,0.0,81,0.00,,,0.29,WSDL version 420,2013-02-23 19:51:00,
2013-02-23 14:53:00,47.6,42.1,28.67,NW,315,0.0,0.0,81,0.00,,,0.29,WSDL version 420,2013-02-23 19:53:00,
2013-02-23 14:57:00,47.7,42.2,28.67,NW,315,0.0,0.0,81,0.00,,,0.29,WSDL version 420,2013-02-23 19:57:00,
2013-02-23 14:59:00,47.7,42.2,28.67,NNW,329,0.0,0.0,81,0.00,,,0.29,WSDL version 420,2013-02-23 19:59:00,
2013-02-23 15:03:00,47.7,42.2,28.67,North,360,0.0,0.0,81,0.00,,,0.29,WSDL version 420,2013-02-23 20:03:00,
2013-02-23 15:05:00,47.7,42.2,28.67,North,360,0.0,0.0,81,0.00,,,0.29,WSDL version 420,2013-02-23 20:05:00,
2013-02-23 15:11:00,47.7,42.2,28.64,North,360,0.0,0.0,81,0.00,,,0.29,WSDL version 420,2013-02-23 20:11:00,
2013-02-23 15:13:00,47.8,42.3,28.64,North,360,0.0,0.0,81,0.00,,,0.29,WSDL version 420,2013-02-23 20:13:00,
2013-02-23 15:19:00,47.8,42.3,28.64,North,360,0.0,0.0,81,0.00,,,0.29,WSDL version 420,2013-02-23 20:19:00,
2013-02-23 15:21:00,47.9,42.4,28.64,North,360,0.0,0.0,81,0.00,,,0.29,WSDL version 420,2013-02-23 20:21:00,
2013-02-23 15:27:00,48.0,42.4,28.64,North,360,0.0,0.0,80,0.00,,,0.29,WSDL version 420,2013-02-23 20:27:00,
2013-02-23 15:29:00,48.1,42.3,28.64,North,360,0.0,0.0,80,0.00,,,0.29,WSDL version 420,2013-02-23 20:29:00,
2013-02-23 15:35:00,48.2,42.3,28.64,North,360,0.6,1.6,80,0.00,,,0.29,WSDL version 420,2013-02-23 20:35:00,
2013-02-23 15:41:00,48.3,42.5,28.64,North,360,0.0,1.6,80,0.00,,,0.29,WSDL version 420,2013-02-23 20:41:00,
2013-02-23 15:47:00,48.5,42.6,28.64,North,360,0.0,1.6,80,0.00,,,0.29,WSDL version 420,2013-02-23 20:47:00,
2013-02-23 15:53:00,48.6,42.4,28.64,North,-999,-999.0,-999.0,79,0.00,,,0.29,WSDL version 420,2013-02-23 20:53:00,
2013-02-23 15:57:00,48.6,42.4,28.67,North,360,0.0,0.0,79,0.00,,,0.29,WSDL version 420,2013-02-23 20:57:00,
2013-02-23 15:59:00,48.6,42.4,28.67,North,360,0.0,0.0,79,0.00,,,0.29,WSDL version 420,2013-02-23 20:59:00,
2013-02-23 16:03:00,48.7,42.5,28.67,North,360,0.0,0.0,79,0.00,,,0.29,WSDL version 420,2013-02-23 21:03:00,
2013-02-23 16:05:00,48.7,42.5,28.67,North,360,0.0,0.0,79,0.00,,,0.29,WSDL version 420,2013-02-23 21:05:00,
2013-02-23 16:11:00,48.7,42.1,28.64,North,360,0.0,0.0,78,0.00,,,0.29,WSDL version 420,2013-02-23 21:11:00,
2013-02-23 16:13:00,48.7,42.1,28.64,North,360,0.0,0.0,78,0.00,,,0.29,WSDL version 420,2013-02-23 21:13:00,
2013-02-23 16:17:00,48.6,42.0,28.64,North,360,0.0,0.0,78,0.00,,,0.29,WSDL version 420,2013-02-23 21:17:00,
2013-02-23 16:23:00,48.6,42.0,28.64,NNW,338,0.0,0.0,78,0.00,,,0.29,WSDL version 420,2013-02-23 21:23:00,
2013-02-23 16:25:00,48.6,42.0,28.64,NW,315,0.0,0.0,78,0.00,,,0.29,WSDL version 420,2013-02-23 21:25:00,
2013-02-23 16:27:00,48.6,42.0,28.64,NW,315,0.0,0.0,78,0.00,,,0.29,WSDL version 420,2013-02-23 21:27:00,
2013-02-23 16:29:00,48.6,42.0,28.64,NW,315,0.0,0.0,78,0.00,,,0.29,WSDL version 420,2013-02-23 21:29:00,
2013-02-23 16:31:00,48.5,42.0,28.64,North,360,0.0,0.0,78,0.00,,,0.29,WSDL version 420,2013-02-23 21:31:00,
2013-02-23 16:37:00,48.4,41.5,28.64,North,360,0.0,0.0,77,0.00,,,0.29,WSDL version 420,2013-02-23 21:37:00,
2013-02-23 16:39:00,48.4,41.5,28.64,North,360,0.0,0.0,77,0.00,,,0.29,WSDL version 420,2013-02-23 21:39:00,
2013-02-23 16:43:00,48.4,41.5,28.64,SSW,203,0.0,0.0,77,0.00,,,0.29,WSDL version 420,2013-02-23 21:43:00,
2013-02-23 16:45:00,48.5,41.7,28.64,SSW,203,0.0,0.0,78,0.00,,,0.29,WSDL version 420,2013-02-23 21:45:00,
2013-02-23 16:49:00,48.6,42.0,28.64,SSW,203,0.0,0.0,78,0.00,,,0.29,WSDL version 420,2013-02-23 21:49:00,
2013-02-23 16:53:00,48.6,41.8,28.64,SSW,203,0.0,0.0,78,0.00,,,0.29,WSDL version 420,2013-02-23 21:53:00,
2013-02-23 16:55:00,48.6,41.9,28.64,SSW,203,0.0,0.0,78,0.00,,,0.29,WSDL version 420,2013-02-23 21:55:00,
2013-02-23 16:59:00,48.6,42.0,28.64,SSW,203,0.0,0.0,78,0.00,,,0.29,WSDL version 420,2013-02-23 21:59:00,
2013-02-23 17:01:00,48.6,41.9,28.64,SE,125,0.0,0.0,77,0.00,,,0.29,WSDL version 420,2013-02-23 22:01:00,
2013-02-23 17:03:00,48.5,41.7,28.64,NE,45,0.0,0.0,77,0.00,,,0.29,WSDL version 420,2013-02-23 22:03:00,
2013-02-23 17:07:00,48.4,41.6,28.64,NE,45,0.0,0.0,78,0.00,,,0.29,WSDL version 420,2013-02-23 22:07:00,
2013-02-23 17:09:00,48.4,41.7,28.64,NE,45,0.0,0.0,78,0.00,,,0.29,WSDL version 420,2013-02-23 22:09:00,
2013-02-23 17:13:00,48.4,41.8,28.64,NE,45,0.0,0.0,78,0.00,,,0.29,WSDL version 420,2013-02-23 22:13:00,
2013-02-23 17:15:00,48.4,41.8,28.64,NE,45,0.0,0.0,78,0.00,,,0.29,WSDL version 420,2013-02-23 22:15:00,
2013-02-23 17:17:00,48.4,41.8,28.64,NE,45,0.0,0.0,78,0.00,,,0.29,WSDL version 420,2013-02-23 22:17:00,
2013-02-23 17:21:00,48.4,41.8,28.64,NE,45,0.0,0.0,78,0.00,,,0.29,WSDL version 420,2013-02-23 22:21:00,
2013-02-23 17:23:00,48.4,41.8,28.64,NE,45,0.0,0.0,78,0.00,,,0.29,WSDL version 420,2013-02-23 22:23:00,
2013-02-23 17:27:00,48.2,41.6,28.61,NE,45,0.0,0.0,78,0.00,,,0.29,WSDL version 420,2013-02-23 22:27:00,
2013-02-23 17:33:00,48.2,41.7,28.61,NE,45,0.0,0.0,78,0.00,,,0.29,WSDL version 420,2013-02-23 22:33:00,
2013-02-23 17:35:00,48.2,41.7,28.61,NE,45,0.0,0.0,78,0.00,,,0.29,WSDL version 420,2013-02-23 22:35:00,
2013-02-23 17:39:00,48.1,41.5,28.61,NE,45,0.0,0.0,78,0.00,,,0.29,WSDL version 420,2013-02-23 22:39:00,
2013-02-23 17:45:00,48.0,41.5,28.61,NE,45,0.0,0.0,78,0.00,,,0.29,WSDL version 420,2013-02-23 22:45:00,
2013-02-23 17:47:00,48.0,41.5,28.61,NE,45,0.0,0.0,78,0.00,,,0.29,WSDL version 420,2013-02-23 22:47:00,
2013-02-23 17:51:00,48.0,41.8,28.61,NE,45,0.0,0.0,79,0.00,,,0.29,WSDL version 420,2013-02-23 22:51:00,
2013-02-23 17:55:00,48.0,41.7,28.61,NE,45,0.0,0.0,78,0.00,,,0.29,WSDL version 420,2013-02-23 22:55:00,
2013-02-23 17:57:00,47.9,41.4,28.61,NE,45,0.0,0.0,78,0.00,,,0.29,WSDL version 420,2013-02-23 22:57:00,
2013-02-23 17:59:00,47.8,41.3,28.61,NE,45,0.0,0.0,78,0.00,,,0.29,WSDL version 420,2013-02-23 22:59:00,
2013-02-23 18:03:00,47.8,41.5,28.61,NE,45,0.0,0.0,79,0.00,,,0.29,WSDL version 420,2013-02-23 23:03:00,
2013-02-23 18:05:00,47.8,41.7,28.61,NE,45,0.0,0.0,79,0.00,,,0.29,WSDL version 420,2013-02-23 23:05:00,
2013-02-23 18:09:00,47.7,41.5,28.61,NE,45,0.0,0.0,79,0.00,,,0.29,WSDL version 420,2013-02-23 23:09:00,
2013-02-23 18:11:00,47.7,41.5,28.61,NE,45,0.0,0.0,79,0.00,,,0.29,WSDL version 420,2013-02-23 23:11:00,
2013-02-23 18:17:00,47.7,41.5,28.61,NE,45,0.0,0.0,79,0.00,,,0.29,WSDL version 420,2013-02-23 23:17:00,
2013-02-23 18:19:00,47.6,41.4,28.61,NE,45,0.0,0.0,79,0.00,,,0.29,WSDL version 420,2013-02-23 23:19:00,
2013-02-23 18:25:00,47.5,41.3,28.61,NE,45,0.0,0.0,79,0.00,,,0.29,WSDL version 420,2013-02-23 23:25:00,
2013-02-23 18:27:00,47.5,41.3,28.61,NE,45,0.0,0.0,79,0.00,,,0.29,WSDL version 420,2013-02-23 23:27:00,
2013-02-23 18:33:00,47.4,41.4,28.61,NE,45,0.0,0.0,80,0.00,,,0.29,WSDL version 420,2013-02-23 23:33:00,
2013-02-23 18:35:00,47.3,41.5,28.61,NE,45,0.0,0.0,80,0.00,,,0.29,WSDL version 420,2013-02-23 23:35:00,
2013-02-23 18:41:00,47.3,41.5,28.61,North,360,0.0,0.0,80,0.00,,,0.29,WSDL version 420,2013-02-23 23:41:00,
2013-02-23 18:43:00,47.3,41.5,28.61,North,360,0.0,0.0,80,0.00,,,0.29,WSDL version 420,2013-02-23 23:43:00,
2013-02-23 18:45:00,47.3,41.5,28.61,NNW,338,0.0,0.0,80,0.00,,,0.29,WSDL version 420,2013-02-23 23:45:00,
2013-02-23 18:51:00,47.1,41.3,28.61,WSW,248,0.0,0.0,80,0.00,,,0.29,WSDL version 420,2013-02-23 23:51:00,
2013-02-23 18:53:00,47.1,41.3,28.61,WSW,248,0.0,0.0,80,0.00,,,0.29,WSDL version 420,2013-02-23 23:53:00,
2013-02-23 18:55:00,47.1,41.3,28.61,SW,236,0.0,0.0,80,0.00,,,0.29,WSDL version 420,2013-02-23 23:55:00,
2013-02-23 19:01:00,47.1,41.3,28.61,SE,135,0.0,0.0,80,0.00,,,0.29,WSDL version 420,2013-02-24 00:01:00,
2013-02-23 19:03:00,47.1,41.3,28.61,SE,135,0.0,0.0,80,0.00,,,0.29,WSDL version 420,2013-02-24 00:03:00,
2013-02-23 19:09:00,47.1,41.3,28.61,SW,225,0.0,0.0,80,0.00,,,0.29,WSDL version 420,2013-02-24 00:09:00,
2013-02-23 19:13:00,47.0,41.1,28.61,SSW,207,0.0,0.0,80,0.00,,,0.29,WSDL version 420,2013-02-24 00:13:00,
2013-02-23 19:17:00,46.9,41.1,28.61,SSW,203,0.0,0.0,80,0.00,,,0.29,WSDL version 420,2013-02-24 00:17:00,
2013-02-23 19:21:00,46.9,41.3,28.61,SSW,203,0.0,0.0,81,0.00,,,0.29,WSDL version 420,2013-02-24 00:21:00,
2013-02-23 19:23:00,46.9,41.5,28.61,SSW,203,0.0,0.0,81,0.00,,,0.29,WSDL version 420,2013-02-24 00:23:00,
2013-02-23 19:27:00,46.9,41.5,28.61,SSW,203,0.0,0.0,81,0.00,,,0.29,WSDL version 420,2013-02-24 00:27:00,
2013-02-23 19:31:00,46.9,41.5,28.61,SSW,203,0.0,0.0,81,0.00,,,0.29,WSDL version 420,2013-02-24 00:31:00,
2013-02-23 19:33:00,46.9,41.5,28.61,SSW,203,0.0,0.0,81,0.00,,,0.29,WSDL version 420,2013-02-24 00:33:00,
2013-02-23 19:37:00,46.9,41.5,28.61,SSW,203,0.0,0.0,81,0.00,,,0.29,WSDL version 420,2013-02-24 00:37:00,
2013-02-23 19:39:00,46.9,41.4,28.61,SSW,203,0.0,0.0,81,0.00,,,0.29,WSDL version 420,2013-02-24 00:39:00,
2013-02-23 19:41:00,46.8,41.3,28.61,SSW,203,0.0,0.0,81,0.00,,,0.29,WSDL version 420,2013-02-24 00:41:00,
2013-02-23 19:43:00,46.8,41.3,28.61,SSW,203,0.0,0.0,81,0.00,,,0.29,WSDL version 420,2013-02-24 00:43:00,
2013-02-23 19:45:00,46.8,41.3,28.61,SSW,203,0.0,0.0,81,0.00,,,0.29,WSDL version 420,2013-02-24 00:45:00,
2013-02-23 19:48:00,46.8,41.3,28.61,SSW,203,0.0,0.0,81,0.00,,,0.29,WSDL version 420,2013-02-24 00:48:00,
2013-02-23 19:50:00,46.8,41.3,28.61,SSW,203,0.0,0.0,81,0.00,,,0.29,WSDL version 420,2013-02-24 00:50:00,
2013-02-23 19:52:00,46.7,41.3,28.61,NW,305,0.0,0.0,81,0.00,,,0.29,WSDL version 420,2013-02-24 00:52:00,
2013-02-23 19:56:00,46.6,41.1,28.61,NW,315,0.0,0.0,81,0.00,,,0.29,WSDL version 420,2013-02-24 00:56:00,
2013-02-23 19:58:00,46.6,41.1,28.61,SW,234,0.0,0.0,81,0.00,,,0.29,WSDL version 420,2013-02-24 00:58:00,
2013-02-23 20:04:00,46.6,41.1,28.61,South,180,0.0,2.2,81,0.00,,,0.29,WSDL version 420,2013-02-24 01:04:00,
2013-02-23 20:06:00,46.6,41.1,28.61,South,180,0.0,2.2,81,0.00,,,0.29,WSDL version 420,2013-02-24 01:06:00,
2013-02-23 20:08:00,46.6,41.1,28.61,North,-999,-999.0,-999.0,81,0.00,,,0.29,WSDL version 420,2013-02-24 01:08:00,
2013-02-23 20:10:00,46.6,41.1,28.61,WSW,248,0.0,0.0,81,0.00,,,0.29,WSDL version 420,2013-02-24 01:10:00,
2013-02-23 20:14:00,46.6,41.1,28.61,WSW,248,0.0,0.0,81,0.00,,,0.29,WSDL version 420,2013-02-24 01:14:00,
2013-02-23 20:16:00,46.6,41.1,28.61,WSW,248,0.0,0.0,81,0.00,,,0.29,WSDL version 420,2013-02-24 01:16:00,
2013-02-23 20:20:00,46.6,41.4,28.61,WSW,248,0.0,0.0,82,0.00,,,0.29,WSDL version 420,2013-02-24 01:20:00,
2013-02-23 20:22:00,46.6,41.5,28.61,North,0,0.0,0.0,82,0.00,,,0.29,WSDL version 420,2013-02-24 01:22:00,
2013-02-23 20:28:00,46.6,41.5,28.61,West,259,0.0,0.0,82,0.00,,,0.29,WSDL version 420,2013-02-24 01:28:00,
2013-02-23 20:32:00,46.6,41.5,28.61,West,270,0.0,0.0,82,0.00,,,0.29,WSDL version 420,2013-02-24 01:32:00,
2013-02-23 20:38:00,46.6,41.5,28.61,West,270,0.0,0.0,82,0.00,,,0.29,WSDL version 420,2013-02-24 01:38:00,
2013-02-23 20:40:00,46.6,41.5,28.61,North,-999,-999.0,-999.0,82,0.00,,,0.29,WSDL version 420,2013-02-24 01:40:00,
2013-02-23 20:42:00,46.6,41.5,28.61,West,270,0.0,0.0,82,0.00,,,0.29,WSDL version 420,2013-02-24 01:42:00,
2013-02-23 20:44:00,46.6,41.5,28.61,North,-999,-999.0,-999.0,82,0.00,,,0.29,WSDL version 420,2013-02-24 01:44:00,
2013-02-23 20:46:00,46.6,41.5,28.61,North,-999,-999.0,-999.0,82,0.00,,,0.29,WSDL version 420,2013-02-24 01:46:00,
2013-02-23 20:50:00,46.6,41.5,28.61,West,270,0.0,0.0,82,0.00,,,0.29,WSDL version 420,2013-02-24 01:50:00,
2013-02-23 20:52:00,46.6,41.5,28.61,West,270,0.0,0.0,82,0.00,,,0.29,WSDL version 420,2013-02-24 01:52:00,
2013-02-23 20:56:00,46.6,41.5,28.61,West,270,0.0,0.0,82,0.00,,,0.29,WSDL version 420,2013-02-24 01:56:00,
2013-02-23 20:58:00,46.6,41.5,28.61,West,270,0.0,0.0,82,0.00,,,0.29,WSDL version 420,2013-02-24 01:58:00,
2013-02-23 21:00:00,46.6,41.5,28.61,West,270,0.0,0.0,82,0.00,,,0.29,WSDL version 420,2013-02-24 02:00:00,
2013-02-23 21:02:00,46.6,41.5,28.61,North,0,0.0,0.0,82,0.00,,,0.29,WSDL version 420,2013-02-24 02:02:00,
2013-02-23 21:06:00,46.6,41.5,28.61,West,270,0.0,0.0,82,0.00,,,0.29,WSDL version 420,2013-02-24 02:06:00,
2013-02-23 21:11:00,46.6,41.5,28.61,West,270,0.0,0.0,82,0.00,,,0.29,WSDL version 420,2013-02-24 02:11:00,
2013-02-23 21:16:00,46.6,41.5,28.61,West,270,0.0,0.0,82,0.00,,,0.29,WSDL version 420,2013-02-24 02:16:00,
2013-02-23 21:18:00,46.6,41.5,28.61,West,270,0.0,0.0,82,0.00,,,0.29,WSDL version 420,2013-02-24 02:18:00,
2013-02-23 21:20:00,46.6,41.5,28.61,West,270,0.0,0.0,82,0.00,,,0.29,WSDL version 420,2013-02-24 02:20:00,
2013-02-23 21:22:00,46.6,41.5,28.61,WNW,293,0.0,0.0,82,0.00,,,0.29,WSDL version 420,2013-02-24 02:22:00,
2013-02-23 21:26:00,46.5,41.4,28.61,North,360,1.0,2.0,82,0.00,,,0.29,WSDL version 420,2013-02-24 02:26:00,
2013-02-23 21:28:00,46.5,41.4,28.61,North,360,0.0,2.0,82,0.00,,,0.29,WSDL version 420,2013-02-24 02:28:00,
2013-02-23 21:32:00,46.6,41.5,28.61,North,360,0.0,2.0,82,0.00,,,0.29,WSDL version 420,2013-02-24 02:32:00,
2013-02-23 21:36:00,46.5,41.4,28.61,North,360,0.0,0.0,82,0.00,,,0.29,WSDL version 420,2013-02-24 02:36:00,
2013-02-23 21:42:00,46.4,41.3,28.61,North,0,0.0,0.0,82,0.00,,,0.29,WSDL version 420,2013-02-24 02:42:00,
2013-02-23 21:48:00,46.4,41.3,28.61,North,360,0.0,0.0,82,0.00,,,0.29,WSDL version 420,2013-02-24 02:48:00,
2013-02-23 21:52:00,46.4,41.5,28.61,North,360,0.0,0.0,83,0.00,,,0.29,WSDL version 420,2013-02-24 02:52:00,
2013-02-23 21:54:00,46.4,41.6,28.61,North,360,0.0,0.0,83,0.00,,,0.29,WSDL version 420,2013-02-24 02:54:00,
2013-02-23 21:56:00,46.4,41.6,28.61,North,360,0.0,0.0,83,0.00,,,0.29,WSDL version 420,2013-02-24 02:56:00,
2013-02-23 22:02:00,46.4,41.6,28.61,North,360,0.0,0.0,83,0.00,,,0.29,WSDL version 420,2013-02-24 03:02:00,
2013-02-23 22:04:00,46.4,41.6,28.61,North,360,0.0,0.0,83,0.00,,,0.29,WSDL version 420,2013-02-24 03:04:00,
2013-02-23 22:06:00,46.4,41.6,28.61,North,360,0.0,0.0,83,0.00,,,0.29,WSDL version 420,2013-02-24 03:06:00,
2013-02-23 22:12:00,46.2,41.5,28.61,North,360,0.0,0.0,83,0.00,,,0.29,WSDL version 420,2013-02-24 03:12:00,
2013-02-23 22:14:00,46.2,41.5,28.61,North,360,0.0,0.0,83,0.00,,,0.29,WSDL version 420,2013-02-24 03:14:00,
2013-02-23 22:18:00,46.2,41.5,28.61,North,360,0.0,0.0,83,0.00,,,0.29,WSDL version 420,2013-02-24 03:18:00,
2013-02-23 22:20:00,46.2,41.5,28.61,North,360,0.0,0.0,83,0.00,,,0.29,WSDL version 420,2013-02-24 03:20:00,
2013-02-23 22:22:00,46.2,41.5,28.61,North,360,0.0,0.0,83,0.00,,,0.29,WSDL version 420,2013-02-24 03:22:00,
2013-02-23 22:26:00,46.2,41.5,28.61,North,360,0.0,0.0,83,0.00,,,0.29,WSDL version 420,2013-02-24 03:26:00,
2013-02-23 22:32:00,46.2,41.5,28.61,North,360,0.0,0.0,83,0.00,,,0.29,WSDL version 420,2013-02-24 03:32:00,
2013-02-23 22:34:00,46.2,41.5,28.61,North,360,0.0,0.0,83,0.00,,,0.29,WSDL version 420,2013-02-24 03:34:00,
2013-02-23 22:38:00,46.2,41.5,28.61,North,360,0.0,0.0,83,0.00,,,0.29,WSDL version 420,2013-02-24 03:38:00,
2013-02-23 22:41:00,46.2,41.5,28.61,North,360,0.0,0.0,83,0.00,,,0.29,WSDL version 420,2013-02-24 03:41:00,
2013-02-23 22:42:00,46.2,41.5,28.61,North,360,0.0,0.0,83,0.00,,,0.29,WSDL version 420,2013-02-24 03:42:00,
2013-02-23 22:46:00,46.2,41.5,28.61,North,360,0.0,0.0,83,0.00,,,0.29,WSDL version 420,2013-02-24 03:46:00,
2013-02-23 22:50:00,46.2,41.5,28.61,North,360,0.0,0.0,83,0.00,,,0.29,WSDL version 420,2013-02-24 03:50:00,
2013-02-23 22:52:00,46.2,41.5,28.61,North,360,0.0,0.0,83,0.00,,,0.29,WSDL version 420,2013-02-24 03:52:00,
2013-02-23 22:54:00,46.2,41.5,28.61,North,360,0.0,0.0,83,0.00,,,0.29,WSDL version 420,2013-02-24 03:54:00,
2013-02-23 22:58:00,46.2,41.5,28.61,North,360,0.0,0.0,83,0.00,,,0.29,WSDL version 420,2013-02-24 03:58:00,
2013-02-23 23:00:00,46.2,41.5,28.61,North,360,0.0,0.0,83,0.00,,,0.29,WSDL version 420,2013-02-24 04:00:00,
2013-02-23 23:05:00,46.2,41.5,28.61,North,360,0.0,0.0,83,0.00,,,0.29,WSDL version 420,2013-02-24 04:05:00,
2013-02-23 23:06:00,46.2,41.5,28.61,North,360,0.0,0.0,83,0.00,,,0.29,WSDL version 420,2013-02-24 04:06:00,
2013-02-23 23:10:00,46.2,41.6,28.61,North,360,0.0,0.0,83,0.00,,,0.29,WSDL version 420,2013-02-24 04:10:00,
2013-02-23 23:12:00,46.2,41.6,28.61,North,360,0.0,0.0,83,0.00,,,0.29,WSDL version 420,2013-02-24 04:12:00,
2013-02-23 23:14:00,46.2,41.5,28.61,North,360,0.0,0.0,83,0.00,,,0.29,WSDL version 420,2013-02-24 04:14:00,
2013-02-23 23:20:00,46.2,41.5,28.61,North,360,0.0,0.0,84,0.00,,,0.29,WSDL version 420,2013-02-24 04:20:00,
2013-02-23 23:22:00,46.2,41.7,28.61,North,360,0.0,0.0,84,0.00,,,0.29,WSDL version 420,2013-02-24 04:22:00,
2013-02-23 23:28:00,46.2,41.8,28.61,North,360,0.0,0.0,84,0.00,,,0.29,WSDL version 420,2013-02-24 04:28:00,
2013-02-23 23:30:00,46.2,41.8,28.61,North,360,0.0,0.0,84,0.00,,,0.29,WSDL version 420,2013-02-24 04:30:00,
2013-02-23 23:34:00,46.2,41.8,28.61,North,360,0.0,0.0,84,0.00,,,0.29,WSDL version 420,2013-02-24 04:34:00,
2013-02-23 23:37:00,46.2,41.8,28.61,North,360,0.0,0.0,84,0.00,,,0.29,WSDL version 420,2013-02-24 04:37:00,
2013-02-23 23:38:00,46.2,41.8,28.61,North,360,0.0,0.0,84,0.00,,,0.29,WSDL version 420,2013-02-24 04:38:00,
2013-02-23 23:42:00,46.1,41.7,28.61,North,360,0.0,0.0,84,0.00,,,0.29,WSDL version 420,2013-02-24 04:42:00,
2013-02-23 23:44:00,46.1,41.6,28.61,North,360,0.0,0.0,84,0.00,,,0.29,WSDL version 420,2013-02-24 04:44:00,
2013-02-23 23:48:00,46.0,41.6,28.61,North,360,0.0,0.0,84,0.00,,,0.29,WSDL version 420,2013-02-24 04:48:00,
2013-02-23 23:50:00,46.0,41.6,28.61,North,360,0.0,0.0,84,0.00,,,0.29,WSDL version 420,2013-02-24 04:50:00,
2013-02-23 23:52:00,46.0,41.6,28.61,North,360,0.0,0.0,84,0.00,,,0.29,WSDL version 420,2013-02-24 04:52:00,
2013-02-23 23:56:00,46.0,41.6,28.61,North,360,0.0,0.0,84,0.00,,,0.29,WSDL version 420,2013-02-24 04:56:00,